858 
ASUS46 KSEW 022210
RWRWA 

WASHINGTON REGIONAL WEATHER ROUNDUP
NATIONAL WEATHER SERVICE SEATTLE WA
200 PM PST MON MAR 02 2015

NOTE:"FAIR" INDICATES FEW OR NO CLOUDS BELOW 12,000 FEET WITH NO 
SIGNIFICANT WEATHER AND/OR OBSTRUCTIONS TO VISIBILITY.

WAZ505-507>509-022300-
SEATTLE, TACOMA, EVERETT, AND VICINITY
  
CITY           SKY/WX    TMP DP  RH WIND       PRES   REMARKS
EVERETT        MOSUNNY   49  37  63 NW14      30.02S                  
BOEING FIELD   MOSUNNY   53  34  48 N10G20    30.03S                  
RENTON         MOSUNNY   51  38  60 NW15      30.03S                  
SEATAC AIRPORT MOSUNNY   51  35  54 N13G21    30.03S                  
JBLM-MCCHORD   MOSUNNY   50  37  61 NE9G21    30.02F                  
PUYALLUP       MOCLDY    48  37  66 CALM      30.02S                  
BREMERTON      SUNNY     54  27  35 N17G30    30.03S                  
JBLM-FT LEWIS  SUNNY     51  37  59 VRB7      30.01F                  
TACOMA NARROWS MOSUNNY   49  36  61 VRB3      30.02F                  
$$
 
WAZ001-503-506-510-514-515-022300-
NORTH INTERIOR
  
CITY           SKY/WX    TMP DP  RH WIND       PRES   REMARKS
BELLINGHAM     SUNNY     53  35  50 NW8       30.05S                  
FRIDAY HARBOR  SUNNY     50  35  56 N12G18    30.07F                  
EASTSOUND      SUNNY     46  41  81 N15       30.06S                  
PORT ANGELES   SUNNY     52  29  41 VRB7      30.08S                  
NAS WHIDBEY    MOSUNNY   53  36  52 NW17      30.05F                  
ARLINGTON      SUNNY     54  36  50 NW18      30.01F                  
BURLINGTON     SUNNY     48  43  81 NW21      30.04S                  
$$
 
WAZ020-022-039-040-504-511-512-022300-
SOUTHWEST INTERIOR
  
CITY           SKY/WX    TMP DP  RH WIND       PRES   REMARKS
SHELTON        MOSUNNY   54  28  36 VRB5      29.99F                  
OLYMPIA        MOSUNNY   52  35  52 E10G16    30.02F                  
CHEHALIS       FAIR      54  37  54 N15       30.01F                  
KELSO          SUNNY     54  36  50 NW9G16    30.02F                  
VANCOUVER      SUNNY     54  37  52 NW9       29.96F                  
SCAPPOOSE, OR  SUNNY     55  37  50 N12       29.96F                  
PORTLAND, OR   MOSUNNY   54  39  57 NW10      29.97F                  
$$
 
WAZ021-516-517-022300-
WASHINGTON COAST
  
CITY           SKY/WX    TMP DP  RH WIND       PRES   REMARKS
FORKS          SUNNY     54  29  38 NE10G20   30.06R                  
HOQUIAM        CLOUDY    53  39  59 W13       30.03F                  
ASTORIA, OR    SUNNY     52  38  58 VRB3      30.01F                  
$$
 
WAZ019-023-024-040-518-519-022300-
CASCADE MOUNTAINS AND COLUMBIA GORGE
  
CITY           SKY/WX    TMP DP  RH WIND       PRES   REMARKS
TROUTDALE, OR  CLOUDY    55  38  52 W7        29.95F                  
THE DALLES, OR CLOUDY    53  26  35 CALM      29.95F                  
$$

WAZ026-027-041>044-520-521-022300-
EAST SLOPES
  
CITY           SKY/WX    TMP DP  RH WIND       PRES   REMARKS
OMAK           MOSUNNY   48  21  34 N23G32    29.96R                  
WENATCHEE      PTSUNNY   50  27  40 CALM      29.92F                  
ELLENSBURG     CLOUDY    48  28  46 CALM      29.92F                  
YAKIMA         CLOUDY    50  25  37 CALM      29.95F                  
$$

WAZ028-034-035-022300-
COLUMBIA BASIN
  
CITY           SKY/WX    TMP DP  RH WIND       PRES   REMARKS
EPHRATA        PTSUNNY   52  22  30 N14G22    29.91F                  
MOSES LAKE     CLOUDY    49  23  36 N15       29.92F                  
PASCO          CLOUDY    49  28  44 N10       29.97S                  
HERMISTON, OR    N/A     50  25  37 E6        29.94F                  
$$

WAZ036>038-022300-
NORTHEAST WASHINGTON
  
CITY           SKY/WX    TMP DP  RH WIND       PRES   REMARKS
SPOKANE GEIGER PTSUNNY   39  23  52 VRB5      29.86F                  
SPOKANE FELTS  PTSUNNY   41  22  46 CALM      29.88F                  
FAIRCHILD AFB  CLOUDY    39  23  52 VRB3      29.86S                  
COEURDALENE,ID PTSUNNY   39  23  52 W6        29.86F                  
DEER PARK      CLOUDY    41  23  48 SE3       29.87F                  
$$

WAZ029>033-022300-
SOUTHEAST WASHINGTON
  
CITY           SKY/WX    TMP DP  RH WIND       PRES   REMARKS
PULLMAN        CLOUDY    37  25  61 NW7       29.88R                  
LEWISTON, ID   CLOUDY    44  27  51 NW9       29.88S                  
WALLA WALLA    CLOUDY    44  25  47 CALM      29.93S                  
PENDLETON, OR  CLOUDY    46  20  35 N14       29.91F                  
$$